Regional Weather Roundup
Issued by NWS Jackson, KY

Home | Current Version | Previous Version | Text Only | Print | Product List | Glossary On
Versions: 1 2 3 4 5 6 7 8 9 10 11 12 13 14 15 16 17 18 19 20 21 22 23 24 25 26 27
000
ASUS43 KJKL 301110
RWRJKL

EAST KENTUCKY HOURLY WEATHER ROUNDUP
NATIONAL WEATHER SERVICE JACKSON KY
700 AM EDT FRI SEP 30 2016

NOTE: "FAIR" INDICATES FEW OR NO CLOUDS BELOW 12,000 FEET WITH
NO SIGNIFICANT WEATHER AND/OR OBSTRUCTIONS TO VISIBILITY.

* THESE REPORTS ARE NOT UNDER NWS QUALITY CONTROL AND MAY NOT
  REPORT WEATHER SUCH AS PRECIPITATION AND FOG.

KYZ079-080-083-085-087-088-110-112-115-119-120-301200
...EASTERN KENTUCKY...

CITY           SKY/WX    TMP DP  RH WIND       PRES   REMARKS
JACKSON        FOG       53  52  96 CALM      30.04R VSB 1/4
LONDON         FOG       50  48  93 CALM      30.05R VSB 1/4
SOMERSET*      CLOUDY    50  50 100 W3        30.06S FOG
MONTICELLO*    CLOUDY    51  51 100 NW9       30.07S
WILLIAMSBURG*  CLOUDY    46  46 100 CALM      30.06R VSB<1/4
MIDDLESBORO*   CLOUDY    51  50  97 CALM      30.06R
HARLAN APT*    CLOUDY    52  48  87 CALM      30.05R
PIKE CO APT*   FOG       54  54 100 CALM      30.03S VSB 1/4
BIG SANDY APT* CLOUDY    55  55 100 CALM      30.03F FOG
MOREHEAD APT*  CLOUDY    55  54  94 CALM      30.05R
ASHLAND*       CLOUDY    59  57  94 CALM      30.01R
$$

KYZ035-036-041-042-044-050-067-078-099-301200
...CENTRAL KENTUCKY...

CITY           SKY/WX    TMP DP  RH WIND       PRES   REMARKS
MT STERLING*   CLOUDY    52  52 100 NW3       30.05S FOG
FLEMING/MASON* CLOUDY    56  55  99 CALM      30.04R FOG
DANVILLE*      FOG       46  46 100 S3        30.05S VSB 1/4
LEXINGTON      CLOUDY    55  52  89 CALM      30.03R
FRANKFORT      FOG       55  52  89 CALM      30.02S VSB 1/4
LOUISVILLE     CLOUDY    56  53  90 E3        30.02S FOG
LEBANON*       FOG       50  50 100 S3        30.04S VSB<1/4
GLASGOW*       FOG       51  51 100 CALM      30.04S VSB 1/4
BOWLING GREEN  FOG       51  51 100 CALM      30.04R VSB 1/4
$$

KYZ091>093-OHZ055-061-077-WVZ005-015-034-035-042-301200
...SOUTHERN OHIO/WEST VIRGINIA...

CITY           SKY/WX    TMP DP  RH WIND       PRES   REMARKS
COVINGTON      MOCLDY    58  56  93 CALM      30.02F
COLUMBUS       CLOUDY    62  61  96 E12       30.02F
DAYTON         LGT RAIN  58  57  97 NW3       30.03F FOG
WILMINGTON     CLOUDY    56  56 100 S6        30.02S FOG
HUNTINGTON     CLOUDY    57  56  96 SW6       30.02R FOG
CHARLESTON     LGT RAIN  59  57  93 CALM      30.02R
PINEVILLE*     CLOUDY    56  54  91 MISG      30.06F
BECKLEY        CLOUDY    58  57  97 E9        30.04F
BLUEFIELD      CLOUDY    55  54  96 E6        30.04S FOG
LOGAN CO APT*  FOG       57  57 100 CALM      30.01F VSB<1/4
$$

VAZ002-007-008-TNZ017-027-036-066-071-301200
...SOUTHWEST VIRGINIA/EAST TENNESSEE...

CITY           SKY/WX    TMP DP  RH WIND       PRES   REMARKS
WISE*          FOG       52  52 100 NW3       30.05S VSB<1/4
JONESVILLE*    CLOUDY    52  52 100 CALM      30.06S
ABINGDON*      CLOUDY    57  57  99 NW3       30.02R
BRISTOL        CLOUDY    56  53  90 NW5       30.02R
MORRISTOWN*    CLOUDY    52  52 100 CALM      30.02R
SEVIERVILLE*   PTSUNNY   54  48  82 CALM      30.03R
KNOXVILLE      PTCLDY    51  47  86 W5        30.03R
OAK RIDGE      PTCLDY    48  45  89 CALM      30.06R
CROSSVILLE     CLOUDY    48  48 100 NW5       30.07S FOG
NASHVILLE      CLOUDY    55  53  93 CALM      30.05F
$$

...KEY TO REMARKS...
VSB - VISIBILITY IN MILES
WCI - WIND CHILL INDEX
HX  - HEAT INDEX

$$




USA.gov is the U.S. government's official web portal to all federal, state and local government web resources and services.